Simultaneous Nadir Overpasses (SNOs) Predictions

Prediction of SNOs between METOP-B and NOAA-19 Satellite Orbit:

Table of predicted SNOs for the next 14.0 days since TLE Epoch: 7/5/2019
Index Date (METOP-B) Time (METOP-B) Lat,Lon (METOP-B) SZA (METOP-B ) Date (NOAA-19) Time (NOAA-19) Lat,Lon (NOAA-19) SZA (NOAA-19 ) Distance(km) Time Diff (sec)
1 07/16/2019 06:20:28 79.36, 101.39 58.30 07/16/2019 06:19:22 79.36, 101.55 58.30 3.34 66
2 07/16/2019 07:11:09 -79.36, -91.22 121.69 07/16/2019 07:10:26 -79.38, -91.36 121.69 3.21 43
3 07/16/2019 08:01:50 79.34, 75.94 58.29 07/16/2019 08:01:23 79.37, 76.00 58.31 3.00 27
4 07/16/2019 08:52:31 -79.35,-116.67 121.70 07/16/2019 08:52:26 -79.35,-116.64 121.69 0.77 5
5 07/16/2019 09:43:11 79.36, 50.75 58.33 07/16/2019 09:43:23 79.34, 50.72 58.31 2.27 12
6 07/16/2019 10:33:53 -79.34,-142.12 121.71 07/16/2019 10:34:27 -79.36,-142.20 121.68 3.08 34
7 07/16/2019 11:24:33 79.35, 25.30 58.32 07/16/2019 11:25:24 79.35, 25.17 58.33 2.77 51
8 07/16/2019 12:15:15 -79.32,-167.57 121.71 07/16/2019 12:16:27 -79.34,-167.48 121.68 2.48 72




NCC Satellite Simultaneous Nadir Overpasses (SNOs) Prediction Service
